Time,TemperatureF,DewpointF,PressureIn,WindDirection,WindDirectionDegrees,WindSpeedMPH,WindSpeedGustMPH,Humidity,HourlyPrecipIn,Conditions,Clouds,dailyrainin,SoftwareType,DateUTC
2013-01-07 00:02:00,36.0,34.0,30.33,ENE,70,0.0,0.0,94,0.00,,,0.01,,2013-01-07 06:02:00,
2013-01-07 00:12:00,36.0,34.0,30.33,ENE,70,0.0,0.0,94,0.00,,,0.01,,2013-01-07 06:12:00,
2013-01-07 00:22:00,36.0,34.0,30.33,ENE,70,0.0,0.0,94,0.00,,,0.01,,2013-01-07 06:22:00,
2013-01-07 00:32:00,35.0,33.0,30.34,ENE,70,0.0,0.0,94,0.00,,,0.01,,2013-01-07 06:32:00,
2013-01-07 00:42:00,35.0,33.0,30.34,ENE,70,0.0,0.0,94,0.00,,,0.01,,2013-01-07 06:42:00,
2013-01-07 00:52:00,35.0,34.0,30.33,ENE,70,0.0,0.0,95,0.00,,,0.01,,2013-01-07 06:52:00,
2013-01-07 01:02:00,35.0,34.0,30.33,ENE,70,0.0,0.0,95,0.00,,,0.01,,2013-01-07 07:02:00,
2013-01-07 01:12:00,35.0,34.0,30.33,ENE,70,0.0,0.0,95,0.00,,,0.01,,2013-01-07 07:12:00,
2013-01-07 01:22:00,35.0,34.0,30.32,ENE,70,0.0,0.0,95,0.00,,,0.01,,2013-01-07 07:22:00,
2013-01-07 01:33:00,35.0,34.0,30.32,ENE,70,0.0,0.0,95,0.00,,,0.01,,2013-01-07 07:33:00,
2013-01-07 01:42:00,35.0,34.0,30.32,ENE,70,0.0,0.0,95,0.00,,,0.01,,2013-01-07 07:42:00,
2013-01-07 01:53:00,35.0,34.0,30.32,ENE,70,0.0,0.0,95,0.00,,,0.01,,2013-01-07 07:53:00,
2013-01-07 02:03:00,34.0,33.0,30.32,ENE,70,0.0,0.0,95,0.00,,,0.01,,2013-01-07 08:03:00,
2013-01-07 02:12:00,34.0,33.0,30.32,ENE,70,0.0,0.0,95,0.00,,,0.01,,2013-01-07 08:12:00,
2013-01-07 02:22:00,34.0,33.0,30.31,ENE,70,0.0,0.0,95,0.00,,,0.01,,2013-01-07 08:22:00,
2013-01-07 02:32:00,34.0,33.0,30.31,ENE,70,0.0,0.0,95,0.00,,,0.01,,2013-01-07 08:32:00,
2013-01-07 02:42:00,34.0,33.0,30.31,ENE,70,0.0,0.0,95,0.00,,,0.01,,2013-01-07 08:42:00,
2013-01-07 02:53:00,34.0,33.0,30.31,ENE,70,0.0,1.0,96,0.00,,,0.01,,2013-01-07 08:53:00,
2013-01-07 03:02:00,34.0,33.0,30.31,ENE,70,0.0,0.0,96,0.00,,,0.01,,2013-01-07 09:02:00,
2013-01-07 03:12:00,34.0,33.0,30.31,ENE,70,0.0,0.0,96,0.00,,,0.01,,2013-01-07 09:12:00,
2013-01-07 03:22:00,35.0,34.0,30.30,ENE,70,0.0,0.0,96,0.00,,,0.01,,2013-01-07 09:22:00,
2013-01-07 03:32:00,35.0,34.0,30.30,ENE,70,0.0,0.0,96,0.00,,,0.01,,2013-01-07 09:32:00,
2013-01-07 03:42:00,35.0,34.0,30.30,ENE,70,0.0,0.0,96,0.00,,,0.01,,2013-01-07 09:42:00,
2013-01-07 03:52:00,35.0,34.0,30.29,ENE,70,0.0,0.0,97,0.00,,,0.01,,2013-01-07 09:52:00,
2013-01-07 04:02:00,36.0,35.0,30.30,ENE,70,0.0,0.0,97,0.00,,,0.01,,2013-01-07 10:02:00,
2013-01-07 04:12:00,36.0,35.0,30.30,ENE,70,0.0,0.0,97,0.00,,,0.01,,2013-01-07 10:12:00,
2013-01-07 04:22:00,36.0,35.0,30.29,ENE,70,0.0,0.0,97,0.00,,,0.01,,2013-01-07 10:22:00,
2013-01-07 04:32:00,36.0,35.0,30.29,ENE,70,0.0,0.0,97,0.00,,,0.01,,2013-01-07 10:32:00,
2013-01-07 04:42:00,36.0,35.0,30.29,ENE,70,0.0,0.0,97,0.00,,,0.01,,2013-01-07 10:42:00,
2013-01-07 04:52:00,35.0,34.0,30.29,ENE,70,0.0,0.0,97,0.00,,,0.01,,2013-01-07 10:52:00,
2013-01-07 05:02:00,35.0,34.0,30.29,ENE,70,0.0,0.0,97,0.00,,,0.01,,2013-01-07 11:02:00,
2013-01-07 05:12:00,35.0,34.0,30.29,ENE,70,0.0,0.0,97,0.00,,,0.01,,2013-01-07 11:12:00,
2013-01-07 05:22:00,35.0,34.0,30.29,ENE,70,0.0,0.0,97,0.00,,,0.01,,2013-01-07 11:22:00,
2013-01-07 05:32:00,34.0,33.0,30.29,ENE,70,0.0,1.0,97,0.00,,,0.01,,2013-01-07 11:32:00,
2013-01-07 05:43:00,34.0,33.0,30.29,ENE,70,0.0,1.0,97,0.00,,,0.01,,2013-01-07 11:43:00,
2013-01-07 05:53:00,34.0,33.0,30.30,ENE,70,0.0,0.0,97,0.00,,,0.01,,2013-01-07 11:53:00,
2013-01-07 06:02:00,34.0,33.0,30.30,ENE,70,0.0,0.0,97,0.00,,,0.01,,2013-01-07 12:02:00,
2013-01-07 06:12:00,34.0,33.0,30.30,ENE,70,0.0,0.0,97,0.00,,,0.01,,2013-01-07 12:12:00,
2013-01-07 06:22:00,34.0,33.0,30.30,ENE,70,0.0,0.0,97,0.00,,,0.01,,2013-01-07 12:22:00,
2013-01-07 06:32:00,34.0,33.0,30.30,ENE,70,0.0,0.0,97,0.00,,,0.01,,2013-01-07 12:32:00,
2013-01-07 06:43:00,34.0,33.0,30.30,ENE,70,0.0,0.0,97,0.00,,,0.01,,2013-01-07 12:43:00,
2013-01-07 06:53:00,34.0,33.0,30.30,ENE,70,0.0,0.0,97,0.00,,,0.01,,2013-01-07 12:53:00,
2013-01-07 07:02:00,34.0,33.0,30.31,ENE,70,0.0,0.0,97,0.00,,,0.01,,2013-01-07 13:02:00,
2013-01-07 07:12:00,34.0,33.0,30.31,ENE,70,0.0,0.0,97,0.00,,,0.01,,2013-01-07 13:12:00,
2013-01-07 07:23:00,34.0,33.0,30.32,ENE,70,0.0,0.0,97,0.00,,,0.01,,2013-01-07 13:23:00,
2013-01-07 07:33:00,35.0,34.0,30.31,ENE,70,0.0,0.0,97,0.00,,,0.01,,2013-01-07 13:33:00,
2013-01-07 07:42:00,35.0,34.0,30.31,ENE,70,0.0,0.0,97,0.00,,,0.01,,2013-01-07 13:42:00,
2013-01-07 07:53:00,35.0,34.0,30.32,ENE,70,0.0,1.0,97,0.00,,,0.01,,2013-01-07 13:53:00,
2013-01-07 08:03:00,35.0,34.0,30.32,ENE,70,0.0,1.0,98,0.00,,,0.01,,2013-01-07 14:03:00,
2013-01-07 08:12:00,35.0,34.0,30.32,ENE,70,0.0,1.0,98,0.00,,,0.01,,2013-01-07 14:12:00,
2013-01-07 08:22:00,36.0,35.0,30.33,ENE,70,0.0,1.0,98,0.00,,,0.01,,2013-01-07 14:22:00,
2013-01-07 08:33:00,37.0,36.0,30.32,ENE,59,0.0,3.0,98,0.00,,,0.01,,2013-01-07 14:33:00,
2013-01-07 08:42:00,37.0,36.0,30.32,ENE,59,0.0,3.0,98,0.00,,,0.01,,2013-01-07 14:42:00,
2013-01-07 08:53:00,38.0,37.0,30.33,NE,49,0.0,2.0,98,0.00,,,0.01,,2013-01-07 14:53:00,
2013-01-07 09:03:00,39.0,38.0,30.33,NE,55,0.0,2.0,98,0.00,,,0.01,,2013-01-07 15:03:00,
2013-01-07 09:12:00,39.0,38.0,30.33,NE,55,0.0,2.0,98,0.00,,,0.01,,2013-01-07 15:12:00,
2013-01-07 09:22:00,40.0,39.0,30.34,NE,42,0.0,4.0,98,0.00,,,0.01,,2013-01-07 15:22:00,
2013-01-07 09:33:00,41.0,40.0,30.33,NE,47,1.0,7.0,98,0.00,,,0.01,,2013-01-07 15:33:00,
2013-01-07 09:42:00,41.0,40.0,30.33,NE,47,1.0,7.0,98,0.00,,,0.01,,2013-01-07 15:42:00,
2013-01-07 09:53:00,42.0,41.0,30.33,ENE,59,1.0,6.0,98,0.00,,,0.01,,2013-01-07 15:53:00,
2013-01-07 10:02:00,43.0,42.0,30.33,NE,42,1.0,5.0,98,0.00,,,0.01,,2013-01-07 16:02:00,
2013-01-07 10:12:00,43.0,42.0,30.33,NE,42,1.0,5.0,98,0.00,,,0.01,,2013-01-07 16:12:00,
2013-01-07 10:22:00,44.0,43.0,30.34,ENE,57,0.0,3.0,98,0.00,,,0.01,,2013-01-07 16:22:00,
2013-01-07 10:33:00,45.0,44.0,30.34,ENE,63,0.0,2.0,97,0.00,,,0.01,,2013-01-07 16:33:00,
2013-01-07 10:43:00,45.0,44.0,30.34,ENE,63,0.0,2.0,97,0.00,,,0.01,,2013-01-07 16:43:00,
2013-01-07 10:53:00,46.0,44.0,30.33,ENE,57,1.0,4.0,94,0.00,,,0.01,,2013-01-07 16:53:00,
2013-01-07 11:02:00,47.0,45.0,30.33,NE,49,0.0,3.0,92,0.00,,,0.01,,2013-01-07 17:02:00,
2013-01-07 11:12:00,47.0,45.0,30.33,NE,49,0.0,3.0,92,0.00,,,0.01,,2013-01-07 17:12:00,
2013-01-07 11:23:00,48.0,44.0,30.32,ENE,59,0.0,2.0,87,0.00,,,0.01,,2013-01-07 17:23:00,
2013-01-07 11:33:00,48.0,44.0,30.31,NE,55,0.0,2.0,85,0.00,,,0.01,,2013-01-07 17:33:00,
2013-01-07 11:42:00,48.0,44.0,30.31,NE,55,0.0,2.0,85,0.00,,,0.01,,2013-01-07 17:42:00,
2013-01-07 11:53:00,50.0,45.0,30.29,NNE,26,0.0,4.0,84,0.00,,,0.01,,2013-01-07 17:53:00,
2013-01-07 12:03:00,51.0,45.0,30.29,NNE,26,0.0,3.0,80,0.00,,,0.01,,2013-01-07 18:03:00,
2013-01-07 12:12:00,51.0,45.0,30.29,NNE,26,0.0,3.0,80,0.00,,,0.01,,2013-01-07 18:12:00,
2013-01-07 12:23:00,53.0,46.0,30.28,NE,56,0.0,4.0,76,0.00,,,0.01,,2013-01-07 18:23:00,
2013-01-07 12:32:00,54.0,46.0,30.27,NE,48,0.0,4.0,73,0.00,,,0.01,,2013-01-07 18:32:00,
2013-01-07 12:42:00,54.0,46.0,30.27,NE,48,0.0,4.0,73,0.00,,,0.01,,2013-01-07 18:42:00,
2013-01-07 12:53:00,55.0,45.0,30.27,ENE,74,0.0,3.0,68,0.00,,,0.01,,2013-01-07 18:53:00,
2013-01-07 13:03:00,55.0,45.0,30.26,SW,231,0.0,1.0,68,0.00,,,0.01,,2013-01-07 19:03:00,
2013-01-07 13:12:00,55.0,45.0,30.26,SW,231,0.0,1.0,68,0.00,,,0.01,,2013-01-07 19:12:00,
2013-01-07 13:22:00,56.0,46.0,30.25,NE,37,0.0,1.0,68,0.00,,,0.01,,2013-01-07 19:22:00,
2013-01-07 13:33:00,56.0,44.0,30.25,NE,44,0.0,1.0,64,0.00,,,0.01,,2013-01-07 19:33:00,
2013-01-07 13:42:00,56.0,44.0,30.25,NE,44,0.0,1.0,64,0.00,,,0.01,,2013-01-07 19:42:00,
2013-01-07 13:53:00,56.0,44.0,30.23,NE,40,0.0,1.0,65,0.00,,,0.01,,2013-01-07 19:53:00,
2013-01-07 14:03:00,57.0,46.0,30.22,NE,40,0.0,1.0,67,0.00,,,0.01,,2013-01-07 20:03:00,
2013-01-07 14:12:00,57.0,46.0,30.22,NE,40,0.0,1.0,67,0.00,,,0.01,,2013-01-07 20:12:00,
2013-01-07 14:23:00,57.0,44.0,30.21,ENE,65,0.0,2.0,61,0.00,,,0.01,,2013-01-07 20:23:00,
2013-01-07 14:33:00,57.0,45.0,30.22,ENE,59,0.0,2.0,64,0.00,,,0.01,,2013-01-07 20:33:00,
2013-01-07 14:42:00,57.0,45.0,30.22,ENE,59,0.0,2.0,64,0.00,,,0.01,,2013-01-07 20:42:00,
2013-01-07 14:53:00,57.0,44.0,30.20,East,94,0.0,2.0,61,0.00,,,0.01,,2013-01-07 20:53:00,
2013-01-07 15:03:00,57.0,45.0,30.21,East,94,0.0,1.0,63,0.00,,,0.00,,2013-01-07 21:03:00,
2013-01-07 15:12:00,57.0,45.0,30.21,East,94,0.0,1.0,63,0.00,,,0.00,,2013-01-07 21:12:00,
2013-01-07 15:23:00,58.0,44.0,30.19,ENE,73,0.0,3.0,60,0.00,,,0.00,,2013-01-07 21:23:00,
2013-01-07 15:33:00,58.0,45.0,30.19,East,97,0.0,3.0,61,0.00,,,0.00,,2013-01-07 21:33:00,
2013-01-07 15:42:00,58.0,45.0,30.19,East,97,0.0,3.0,61,0.00,,,0.00,,2013-01-07 21:42:00,
2013-01-07 15:53:00,57.0,44.0,30.20,East,94,0.0,1.0,61,0.00,,,0.00,,2013-01-07 21:53:00,
2013-01-07 16:02:00,57.0,45.0,30.21,East,84,0.0,2.0,64,0.00,,,0.00,,2013-01-07 22:02:00,
2013-01-07 16:12:00,57.0,45.0,30.21,East,84,0.0,2.0,64,0.00,,,0.00,,2013-01-07 22:12:00,
2013-01-07 16:22:00,57.0,45.0,30.21,East,84,0.0,0.0,65,0.00,,,0.00,,2013-01-07 22:22:00,
2013-01-07 16:33:00,57.0,46.0,30.20,East,84,0.0,1.0,67,0.00,,,0.00,,2013-01-07 22:33:00,
2013-01-07 16:42:00,57.0,46.0,30.20,East,84,0.0,1.0,67,0.00,,,0.00,,2013-01-07 22:42:00,
2013-01-07 16:53:00,57.0,46.0,30.20,East,84,0.0,0.0,67,0.00,,,0.00,,2013-01-07 22:53:00,
2013-01-07 17:02:00,57.0,47.0,30.19,East,84,0.0,0.0,69,0.00,,,0.00,,2013-01-07 23:02:00,
2013-01-07 17:12:00,57.0,47.0,30.19,East,84,0.0,0.0,69,0.00,,,0.00,,2013-01-07 23:12:00,
2013-01-07 17:22:00,56.0,46.0,30.18,East,84,0.0,0.0,70,0.00,,,0.00,,2013-01-07 23:22:00,
2013-01-07 17:32:00,55.0,45.0,30.19,East,84,0.0,0.0,70,0.00,,,0.00,,2013-01-07 23:32:00,
2013-01-07 17:42:00,55.0,45.0,30.19,East,84,0.0,0.0,70,0.00,,,0.00,,2013-01-07 23:42:00,
2013-01-07 17:53:00,54.0,47.0,30.19,East,84,0.0,0.0,76,0.00,,,0.00,,2013-01-07 23:53:00,
2013-01-07 18:02:00,54.0,47.0,30.19,East,84,0.0,0.0,77,0.00,,,0.00,,2013-01-08 00:02:00,
2013-01-07 18:12:00,54.0,47.0,30.19,East,84,0.0,0.0,77,0.00,,,0.00,,2013-01-08 00:12:00,
2013-01-07 18:22:00,53.0,47.0,30.18,East,84,0.0,0.0,79,0.00,,,0.00,,2013-01-08 00:22:00,
2013-01-07 18:33:00,53.0,47.0,30.18,East,84,0.0,0.0,79,0.00,,,0.00,,2013-01-08 00:33:00,
2013-01-07 18:42:00,53.0,47.0,30.18,East,84,0.0,0.0,79,0.00,,,0.00,,2013-01-08 00:42:00,
2013-01-07 18:53:00,52.0,46.0,30.18,East,84,0.0,0.0,81,0.00,,,0.00,,2013-01-08 00:53:00,
2013-01-07 19:02:00,51.0,46.0,30.18,East,84,0.0,0.0,83,0.00,,,0.00,,2013-01-08 01:02:00,
2013-01-07 19:12:00,51.0,46.0,30.18,East,84,0.0,0.0,83,0.00,,,0.00,,2013-01-08 01:12:00,
2013-01-07 19:22:00,50.0,46.0,30.19,East,84,0.0,0.0,86,0.00,,,0.00,,2013-01-08 01:22:00,
2013-01-07 19:32:00,50.0,46.0,30.18,East,84,0.0,1.0,86,0.00,,,0.00,,2013-01-08 01:32:00,
2013-01-07 19:42:00,50.0,46.0,30.18,East,84,0.0,1.0,86,0.00,,,0.00,,2013-01-08 01:42:00,
2013-01-07 19:52:00,50.0,46.0,30.17,East,84,0.0,0.0,87,0.00,,,0.00,,2013-01-08 01:52:00,
2013-01-07 20:02:00,49.0,45.0,30.16,East,84,0.0,0.0,87,0.00,,,0.00,,2013-01-08 02:02:00,
2013-01-07 20:12:00,49.0,45.0,30.16,East,84,0.0,0.0,87,0.00,,,0.00,,2013-01-08 02:12:00,
2013-01-07 20:22:00,49.0,46.0,30.16,East,84,0.0,0.0,88,0.00,,,0.00,,2013-01-08 02:22:00,
2013-01-07 20:32:00,48.0,45.0,30.16,East,84,0.0,0.0,88,0.00,,,0.00,,2013-01-08 02:32:00,
2013-01-07 20:42:00,48.0,45.0,30.16,East,84,0.0,0.0,88,0.00,,,0.00,,2013-01-08 02:42:00,
2013-01-07 20:53:00,48.0,45.0,30.17,East,84,0.0,1.0,89,0.00,,,0.00,,2013-01-08 02:53:00,
2013-01-07 21:03:00,48.0,45.0,30.17,East,84,0.0,0.0,90,0.00,,,0.00,,2013-01-08 03:03:00,
2013-01-07 21:12:00,48.0,45.0,30.17,East,84,0.0,0.0,90,0.00,,,0.00,,2013-01-08 03:12:00,
2013-01-07 21:22:00,47.0,45.0,30.17,East,84,0.0,0.0,91,0.00,,,0.00,,2013-01-08 03:22:00,
2013-01-07 21:32:00,47.0,45.0,30.17,East,84,0.0,0.0,91,0.00,,,0.00,,2013-01-08 03:32:00,
2013-01-07 21:42:00,47.0,45.0,30.17,East,84,0.0,0.0,91,0.00,,,0.00,,2013-01-08 03:42:00,
2013-01-07 21:53:00,47.0,45.0,30.17,East,84,0.0,0.0,91,0.00,,,0.00,,2013-01-08 03:53:00,
2013-01-07 22:02:00,47.0,45.0,30.17,East,84,0.0,0.0,92,0.00,,,0.00,,2013-01-08 04:02:00,
2013-01-07 22:12:00,47.0,45.0,30.17,East,84,0.0,0.0,92,0.00,,,0.00,,2013-01-08 04:12:00,
2013-01-07 22:22:00,47.0,45.0,30.16,East,84,0.0,1.0,93,0.00,,,0.00,,2013-01-08 04:22:00,
2013-01-07 22:32:00,47.0,45.0,30.16,East,84,0.0,0.0,93,0.00,,,0.00,,2013-01-08 04:32:00,
2013-01-07 22:42:00,47.0,45.0,30.16,East,84,0.0,0.0,93,0.00,,,0.00,,2013-01-08 04:42:00,
2013-01-07 22:52:00,47.0,45.0,30.15,East,84,0.0,1.0,93,0.00,,,0.00,,2013-01-08 04:52:00,
2013-01-07 23:03:00,47.0,45.0,30.15,NE,52,1.0,2.0,94,0.00,,,0.00,,2013-01-08 05:03:00,
2013-01-07 23:12:00,47.0,45.0,30.15,NE,52,1.0,2.0,94,0.00,,,0.00,,2013-01-08 05:12:00,
2013-01-07 23:22:00,48.0,46.0,30.14,ENE,61,0.0,1.0,92,0.00,,,0.00,,2013-01-08 05:22:00,
2013-01-07 23:33:00,48.0,46.0,30.15,ENE,61,0.0,0.0,92,0.00,,,0.00,,2013-01-08 05:33:00,
2013-01-07 23:42:00,48.0,46.0,30.15,ENE,61,0.0,0.0,92,0.00,,,0.00,,2013-01-08 05:42:00,
2013-01-07 23:53:00,49.0,46.0,30.13,ENE,61,0.0,0.0,91,0.00,,,0.00,,2013-01-08 05:53:00,